Content
SEND FEEDBACK

Daily
Averages
Monthly
Summary
Canada

VANCOUVER, BRITISH COLUMBIA


Home > North America > Canada > British Columbia
Elevation: 7 feet     Latitude: 49 11N     Longitude: 123 10W

WEATHER
 
SELECT A DAY
Number of Records: 249,332;   Date Range: 5/15/97 - 7/30/14
 
SHARE

PRINT THIS DATA

[ ← Previous Day ]
WEATHER ALMANAC - JANUARY 2, 2013
[ Next Day → ]
[ °C ]   °F
Weather ElementAverageHighLow
Temperature36.1 °F41 °F (1:15 pm)30.2 °F (11:15 pm)
Dewpoint30.3 °F35.6 °F (12:55 pm)28.4 °F (1:15 am)
Humidity79.8 %100 % (9:55 pm)70 % (8:55 am)
Barometer30.27 in30.36 in (12:35 am)30.20 in (11:15 pm)
Wind Speed1.3 mph5.8 mph (3:55 am)
Weather ElementAverage
Visibility9.8 mi
Wind DirectionNNE (19.1 °)

Weather ElementTotal
Precipitation---
Heating Degree Days29.4 (Base 65)
Averaged from 65 records on January 2, 2013
WEATHER CONDITIONS BREAKOUT
WIND DIRECTION BREAKOUT
WEATHER BY HOUR - JANUARY 2, 2013
[ °C ]   °F
Local TimeTemperatureDewpointHumidityBarometerVisibilityWind DirectionWind SpeedGust SpeedPrecipitationEventsConditions
12:35 AM32.0 °F30.2 °F93 %30.36 in10.0 miCalmClear
12:55 AM32.0 °F30.2 °F93 %30.35 in10.0 miCalmClear
1:15 AM32.0 °F28.4 °F87 %30.35 in10.0 miCalmClear
1:35 AM33.8 °F28.4 °F81 %30.35 in10.0 miNE (50°)3.5 mphClear
2:15 AM35.6 °F28.4 °F75 %30.34 in10.0 miNNE (30°)4.6 mphClear
2:35 AM35.6 °F28.4 °F75 %30.34 in10.0 miNNE (20°)3.5 mphClear
3:15 AM35.6 °F28.4 °F75 %30.34 in10.0 miCalmClear
3:35 AM35.6 °F28.4 °F75 %30.34 in10.0 miCalmClear
3:55 AM35.6 °F28.4 °F75 %30.33 in10.0 miNNE (30°)5.8 mphClear
4:15 AM35.6 °F28.4 °F75 %30.31 in10.0 miNE (50°)5.8 mphClear
4:35 AM35.6 °F28.4 °F75 %30.31 in10.0 miNorth (360°)3.5 mphClear
4:55 AM35.6 °F28.4 °F75 %30.31 in10.0 miCalmClear
5:15 AM35.6 °F28.4 °F75 %30.31 in10.0 miCalmClear
5:35 AM35.6 °F28.4 °F75 %30.30 in10.0 miNNE (30°)4.6 mphClear
5:55 AM35.6 °F28.4 °F75 %30.30 in10.0 miNE (40°)3.5 mphClear
6:15 AM35.6 °F28.4 °F75 %30.30 in10.0 miNE (50°)5.8 mphClear
6:35 AM35.6 °F28.4 °F75 %30.30 in10.0 miNNE (30°)3.5 mphClear
7:15 AM35.6 °F28.4 °F75 %30.30 in10.0 miCalmClear
7:35 AM35.6 °F28.4 °F75 %30.30 in10.0 miNorthClear
7:55 AM35.6 °F28.4 °F75 %30.30 in10.0 miCalmClear
8:15 AM35.6 °F28.4 °F75 %30.30 in10.0 miCalmClear
8:35 AM35.6 °F28.4 °F75 %30.30 in10.0 miCalmClear
8:55 AM37.4 °F28.4 °F70 %30.30 in10.0 miNE (40°)3.5 mphClear
9:15 AM35.6 °F28.4 °F75 %30.30 in10.0 miCalmClear
9:35 AM35.6 °F28.4 °F75 %30.30 in10.0 miCalmClear
9:55 AM35.6 °F28.4 °F75 %30.30 in10.0 miNE (40°)3.5 mphClear
10:15 AM35.6 °F28.4 °F75 %30.30 in10.0 miCalmClear
10:35 AM37.4 °F30.2 °F75 %30.29 in10.0 miCalmClear
11:15 AM39.2 °F32.0 °F75 %30.29 in10.0 miCalmClear
11:35 AM39.2 °F32.0 °F75 %30.28 in10.0 miNE (50°)4.6 mphClear
11:55 AM39.2 °F32.0 °F75 %30.28 in10.0 miENE (60°)3.5 mphClear
12:15 PM39.2 °F32.0 °F75 %30.27 in10.0 miCalmClear
12:35 PM39.2 °F33.8 °F81 %30.27 in10.0 miCalmClear
12:55 PM39.2 °F35.6 °F87 %30.26 in10.0 miNNE (30°)3.5 mphClear
1:15 PM41.0 °F33.8 °F76 %30.26 in10.0 miENE (60°)3.5 mphClear
1:35 PM41.0 °F35.6 °F81 %30.25 in10.0 miNNE (20°)3.5 mphClear
1:55 PM41.0 °F35.6 °F81 %30.25 in10.0 miCalmClear
2:15 PM41.0 °F32.0 °F70 %30.25 in10.0 miNorth (10°)3.5 mphClear
2:35 PM41.0 °F32.0 °F70 %30.25 in10.0 miCalmClear
2:55 PM41.0 °F32.0 °F70 %30.25 in10.0 miCalmClear
3:15 PM41.0 °F32.0 °F70 %30.25 in10.0 miCalmClear
3:35 PM41.0 °F32.0 °F70 %30.25 in10.0 miCalmClear
3:55 PM39.2 °F32.0 °F75 %30.25 in10.0 miCalmClear
4:15 PM39.2 °F32.0 °F75 %30.25 in10.0 miCalmClear
4:35 PM39.2 °F30.2 °F70 %30.25 in10.0 miEast (80°)4.6 mphClear
4:55 PM39.2 °F30.2 °F70 %30.24 in10.0 miENE (60°)3.5 mphClear
5:15 PM39.2 °F32.0 °F75 %30.24 in10.0 miCalmClear
5:35 PM37.4 °F32.0 °F81 %30.23 in10.0 miCalmClear
5:55 PM39.2 °F32.0 °F75 %30.23 in10.0 miEast (100°)4.6 mphClear
6:35 PM37.4 °F30.2 °F75 %30.23 in10.0 miCalmClear
6:55 PM37.4 °F30.2 °F75 %30.22 in10.0 miCalmClear
7:15 PM35.6 °F30.2 °F81 %30.22 in10.0 miCalmClear
7:55 PM32.0 °F30.2 °F93 %30.21 in10.0 miCalmClear
8:15 PM32.0 °F28.4 °F87 %30.21 in10.0 miCalmClear
8:35 PM32.0 °F30.2 °F93 %30.21 in10.0 miCalmClear
8:55 PM32.0 °F30.2 °F93 %30.21 in10.0 miCalmClear
9:15 PM32.0 °F30.2 °F93 %30.21 in10.0 miCalmClear
9:35 PM32.0 °F30.2 °F93 %30.21 in8.0 miCalmClear
9:55 PM32.0 °F32.0 °F100 %30.21 in9.0 miCalmClear
10:15 PM32.0 °F32.0 °F100 %30.21 in10.0 miCalmClear
10:35 PM32.0 °F30.2 °F93 %30.21 in10.0 miCalmClear
10:55 PM32.0 °F30.2 °F93 %30.21 in10.0 miCalmClear
11:15 PM30.2 °F30.2 °F100 %30.20 in8.0 miCalmClear
11:35 PM30.2 °F30.2 °F100 %30.20 in7.0 miCalmClear
11:55 PM30.2 °F28.4 °F93 %30.20 in6.0 miCalmClear
Hourly data recorded from CZBB, located miles away from Vancouver, British Columbia







STORIES FROM OUR PARTNERS